This demonstration page uses our WeatherBlox Daily Observations layout. Learn more.

Left ArrowRight Arrow

38.83388, -104.82136

Hourly Observations for January 16, 2017

Temp ( °F °C ) Dew Point ( °F °C ) Humidity (%) Winds ( mph kmh ) Pressure ( in mb ) Visibility ( mi km ) Precip ( " mm )
12:28 am 00:28 Cloudy with Light Snow 32 0 30 -1 93 93 N 16 26 29.85 1011 4 6 N/A
12:58 am 00:58 Cloudy with Light Snow 33 0.4 31 -0.8 92 92 N 13 20 29.56 1001 3 4 0.01 0.25
1:58 am 01:58 Mostly Cloudy with Light Snow 31 -0.6 30 -1.2 96 96 N 14 22 29.59 1002 5 8 0.01 0.25
2:03 am 02:03 Mostly Cloudy with Light Snow 30 -1 30 -1 100 100 N 14 22 29.88 1012 2 3 N/A
2:18 am 02:18 Mostly Cloudy with Light Snow 30 -1 28 -2 93 93 N 16 26 29.88 1012 1 1 N/A
2:28 am 02:28 Mostly Cloudy with Light Snow 28 -2 28 -2 100 100 N 16 26 29.91 1013 1 2 N/A
2:58 am 02:58 Mostly Cloudy with Light Snow 29 -1.9 29 -1.9 100 100 N 16 26 29.58 1002 1 2 N/A
3:08 am 03:08 Mostly Cloudy with Light Snow 30 -1 28 -2 93 93 N 20 31 29.85 1011 2 2 N/A
3:58 am 03:58 Windy with Snow Likely 35 1.4 29 -1.9 79 79 NW 24 39 29.55 1001 1 2 0.01 0.25
4:58 am 04:58 Windy with Snow Likely 30 -1.2 28 -2.4 92 92 N 21 33 29.58 1002 2 3 0.00 0.00
5:53 am 05:53 Windy with Snow Likely 30 -1 28 -2 93 93 N 21 33 29.88 1012 7 11 N/A
5:58 am 05:58 Windy with Snow Likely 31 -0.8 28 -2.3 90 90 N 22 35 29.60 1002 2 3 N/A
6:58 am 06:58 Windy with Snow Likely 30 -1.2 25 -3.8 83 83 N 28 44 29.61 1003 5 8 0.01 0.25
7:58 am 07:58 Windy with Snow Likely 30 -1.2 24 -4.3 80 80 N 26 43 29.63 1003 10 16 0.00 0.00
8:28 am 08:28 Mostly Cloudy with Light Snow 34 1 25 -4 70 70 NNW 28 44 29.85 1011 7 11 N/A
8:48 am 08:48 Mostly Cloudy with Light Rain/Snow 34 1 25 -4 70 70 N 25 41 29.85 1011 10 16 N/A
8:58 am 08:58 Mostly Cloudy with Light Rain/Snow 33 0.7 24 -4.5 69 69 N 25 41 29.65 1004 10 16 N/A
9:58 am 09:58 Windy with Rain Showers Likely 34 1 22 -5.3 63 63 NNW 24 39 29.69 1005 10 16 N/A
10:03 am 10:03 Windy with Rain Showers Likely 34 1 23 -5 65 65 NNW 24 39 29.91 1013 10 16 N/A
10:08 am 10:08 Windy with Snow Showers Likely 34 1 23 -5 65 65 NNW 23 37 29.94 1014 10 16 N/A
10:58 am 10:58 Mostly Cloudy with Light Rain 34 1.1 23 -5 64 64 N 24 39 29.67 1005 10 16 0.00 0.00
11:33 am 11:33 Mostly Cloudy 34 1 23 -5 65 65 NNW 18 30 29.94 1014 10 16 N/A
11:40 am 11:40 Windy with Rain Showers Likely 34 1 23 -5 65 65 N 20 31 29.94 1014 10 16 N/A
11:58 am 11:58 Mostly Cloudy with Light Rain/Snow 35 1.4 25 -4.1 67 67 NNW 15 24 29.70 1006 10 16 N/A
12:58 pm 12:58 Windy with Snow Likely 33 0.5 27 -3 78 78 N 22 35 29.68 1005 2 4 N/A
1:13 pm 13:13 Windy with Snow Likely 32 0 27 -3 80 80 N 20 31 29.97 1015 2 3 N/A
1:18 pm 13:18 Windy with Snow Likely 32 0 27 -3 80 80 N 23 37 29.97 1015 2 4 N/A
1:23 pm 13:23 Windy with Snow Likely 32 0 27 -3 80 80 NNW 20 31 29.97 1015 3 5 N/A
1:28 pm 13:28 Windy with Snow Likely 34 1 27 -3 75 75 N 20 31 29.94 1014 4 6 N/A
1:33 pm 13:33 Mostly Cloudy with Light Snow 34 1 27 -3 75 75 N 22 35 29.94 1014 4 6 N/A
1:43 pm 13:43 Mostly Cloudy with Light Snow 34 1 27 -3 75 75 N 21 33 29.94 1014 10 16 N/A
1:48 pm 13:48 Mostly Cloudy with Light Snow 34 1 27 -3 75 75 N 18 30 29.94 1014 10 16 N/A
1:58 pm 13:58 Mostly Cloudy with Light Snow 33 0.7 26 -3.3 75 75 N 20 31 29.72 1006 10 16 N/A
2:03 pm 14:03 Mostly Cloudy with Light Snow 34 1 27 -3 75 75 N 18 30 29.94 1014 10 16 N/A
2:10 pm 14:10 Mostly Cloudy 34 1 25 -4 70 70 N 23 37 29.94 1014 10 16 N/A
2:58 pm 14:58 Mostly Cloudy 33 0.4 24 -4.2 72 72 N 17 28 29.75 1008 10 16 N/A
3:15 pm 15:15 Mostly Cloudy with Light Rain 32 0 25 -4 75 75 NNW 15 24 30.00 1016 10 16 N/A
3:30 pm 15:30 Mostly Cloudy 32 0 25 -4 75 75 N 16 26 30.00 1016 10 16 N/A
3:58 pm 15:58 Cloudy 32 -0.2 24 -4.3 74 74 N 13 20 29.76 1008 10 16 N/A
4:11 pm 16:11 Cloudy with Light Rain 32 0 25 -4 75 75 N 7 11 30.03 1017 10 16 N/A
4:31 pm 16:31 Cloudy with Light Snow Showers 30 -1 25 -4 80 80 NW 5 7 30.06 1018 1 2 N/A
4:58 pm 16:58 Cloudy with Light Snow 29 -1.6 26 -3.1 90 90 NW 5 7 29.85 1011 7 11 N/A
5:58 pm 17:58 Cloudy with Light Snow Showers 30 -1.3 25 -4.1 81 81 NW 5 7 29.85 1011 9 14 N/A
6:04 pm 18:04 Cloudy 30 -1 25 -4 80 80 NNW 5 7 30.15 1021 10 16 N/A
6:07 pm 18:07 Cloudy with Light Showers 30 -1 25 -4 80 80 NNW 6 9 30.15 1021 10 16 N/A
6:10 pm 18:10 Cloudy with Light Snow Showers 30 -1 25 -4 80 80 NNW 5 7 30.15 1021 10 16 N/A
6:40 pm 18:40 Cloudy with Light Snow Showers 28 -2 25 -4 86 86 NNW 6 9 30.18 1022 2 3 N/A
6:58 pm 18:58 Cloudy with Light Snow Showers 29 -1.9 26 -3.4 90 90 NW 5 7 29.88 1012 4 6 N/A
7:53 pm 19:53 Cloudy with Light Snow 28 -2 27 -3 93 93 N 7 11 30.18 1022 4 6 N/A
7:58 pm 19:58 Cloudy with Light Snow 28 -2.3 27 -3 95 95 NNW 8 13 29.88 1012 4 6 0.01 0.25
8:58 pm 20:58 Cloudy with Light Snow 28 -2.4 26 -3.1 95 95 Calm 29.87 1012 3 5 N/A
9:03 pm 21:03 Cloudy with Light Snow 28 -2 27 -3 93 93 Calm 30.18 1022 2 2 N/A
9:08 pm 21:08 Cloudy with Light Freezing Rain 28 -2 27 -3 93 93 NNW 3 6 30.18 1022 5 8 N/A
9:22 pm 21:22 Cloudy 28 -2 27 -3 93 93 Calm 30.18 1022 3 5 N/A
9:37 pm 21:37 Cloudy with Light Snow 28 -2 27 -3 93 93 Calm 30.18 1022 3 5 N/A
9:58 pm 21:58 Cloudy with Light Rain/Snow 28 -2.4 27 -2.7 98 98 Calm 29.85 1011 7 11 0.01 0.25
10:00 pm 22:00 Cloudy with Light Rain/Snow 28 -2 27 -3 93 93 Calm 30.18 1022 7 11 N/A
10:15 pm 22:15 Mostly Cloudy with Light Rain/Snow 28 -2 28 -2 100 100 Calm 30.18 1022 1 2 N/A
10:30 pm 22:30 Mostly Cloudy with Light Snow 28 -2 28 -2 100 100 Calm 30.18 1022 3 4 N/A
10:58 pm 22:58 Cloudy with Light Snow 27 -2.6 27 -2.8 99 99 Calm 29.86 1011 1 1 0.00 0.00
11:13 pm 23:13 Cloudy with Light Snow 28 -2 27 -3 93 93 NNW 3 6 30.18 1022 7 11 N/A
11:28 pm 23:28 Mostly Cloudy with Light Rain 28 -2 27 -3 93 93 Calm 30.18 1022 5 8 N/A
11:43 pm 23:43 Mostly Cloudy with Light Rain 28 -2 27 -3 93 93 N 3 6 30.15 1021 6 10 N/A
11:50 pm 23:50 Mostly Cloudy 28 -2 27 -3 93 93 N 3 6 30.15 1021 6 10 N/A
11:56 pm 23:56 Mostly Cloudy with Light Snow Showers 27 -3 27 -3 100 100 N 3 6 30.15 1021 5 8 N/A
11:58 pm 23:58 Cloudy with Light Snow Showers 27 -2.6 27 -2.8 99 99 N 3 6 29.85 1011 5 8 N/A

Powered by AerisWeather